Location: İstanbul
(41.0082°N, 28.9784°E)
Time: 08:11:08
(UTC+03:00)

DOVE 4 - Pass Details

Date: 01 May 2024
Orbit: 582 x 778 km, 97.7° (Epoch: 27 May)

Event Time Altitude Azimuth Distance (km) Brightness Sun altitude
Rises 22:16:17 0° 18° (NNE) 2,983 ? -21.9°
Reaches altitude 10° 22:18:32 10° 25° (NNE) 2,098 ? -22.2°
Enters shadow 22:22:26 45° 79° (ENE) 944 ? -22.7°
